Weather History for Storm Lake, IA

Change the Weather History Date:

Monday, January 31, 2011

  Actual Average Record
Temperature  
Mean Temperature 16 °F -  
Max Temperature 19 °F 28 °F 48 °F (2006)
Min Temperature 14 °F 14 °F -5 °F (2004)
Degree Days  
Heating Degree Days 48    
Moisture  
Dew Point 15 °F    
Average Humidity 94    
Maximum Humidity 100    
Minimum Humidity 89    
Precipitation  
Precipitation 0.00 in - - ()
Sea Level Pressure  
Sea Level Pressure 30.21 in    
Wind  
Wind Speed 11 mph (NE)    
Max Wind Speed 14 mph    
Max Gust Speed -    
Visibility 4 miles    
Events      
Averages and records for this station are not official NWS values.
T = Trace of Precipitation, MM = Missing Value Source: NWS Daily Summary

Daily Weather History Graph

Daily Weather History Graph

Search for Another Location

Airport:

Trip Planner

Search our weather history database for the weather conditions in past years. The results will help you decide how hot, cold, wet, or windy it might be!

Date:

Astronomy

Jan. 31, 2011 Rise Set
Actual Time 7:36 AM CST 5:32 PM CST
Civil Twilight 7:06 AM CST 6:02 PM CST
Nautical Twilight 6:32 AM CST 6:36 PM CST
Astronomical Twilight 5:59 AM CST 7:09 PM CST
Moon 5:58 AM CST (1/31) 3:25 PM CST (1/31)
Length of Visible Light 10h 56m
Length of Day
9h 56m
Waning Crescent, 5% of the Moon is Illuminated
Jan 31
Waning Crescent
Feb 2
New
Feb 11
First Quarter
Feb 18
Full
Feb 24
Last Quarter

Hourly Weather History & Observations

Time (CST) Temp. Windchill Dew Point Humidity Pressure Visibility Wind Dir Wind Speed Gust Speed Precip Events Conditions
12:15 AM 15.1 °F 0.5 °F 13.6 °F 94% 30.27 in 10.0 mi ENE 13.8 mph - N/A   Overcast
12:35 AM 15.4 °F 1.6 °F 14.2 °F 95% 30.26 in 10.0 mi ENE 12.7 mph - N/A   Overcast
12:55 AM 15.8 °F 1.4 °F 14.7 °F 95% 30.24 in 7.0 mi ENE 13.8 mph - N/A   Overcast
1:15 AM 16.3 °F 3.4 °F 15.4 °F 96% 30.24 in 7.0 mi ENE 11.5 mph - N/A   Overcast
1:35 AM 17.1 °F 3.6 °F 16.0 °F 96% 30.23 in 7.0 mi East 12.7 mph - N/A   Overcast
1:55 AM 18.0 °F 5.4 °F 16.5 °F 94% 30.23 in 10.0 mi East 11.5 mph - N/A   Overcast
2:35 AM 19.0 °F 5.6 °F 16.2 °F 89% 30.23 in 10.0 mi East 13.8 mph - N/A   Overcast
3:57 PM 19.4 °F 8.6 °F 17.6 °F 93% 30.14 in 2.5 mi NE 9.2 mph - N/A   Overcast
4:17 PM 19.4 °F 8.6 °F 17.6 °F 93% 30.14 in 2.5 mi NE 9.2 mph - N/A   Overcast
4:20 PM 19.4 °F 8.6 °F 17.6 °F 93% 30.14 in 2.5 mi NE 9.2 mph - N/A   Overcast
4:40 PM 19.4 °F 8.6 °F 17.6 °F 93% 30.14 in 2.0 mi NE 9.2 mph - N/A   Overcast
5:00 PM 19.4 °F 9.5 °F 17.6 °F 93% 30.16 in 2.5 mi NE 8.1 mph - N/A   Overcast
5:20 PM 19.4 °F 8.6 °F 17.6 °F 93% 30.16 in 4.0 mi NE 9.2 mph - N/A   Overcast
5:40 PM 17.6 °F 5.7 °F 17.6 °F 100% 30.16 in 1.8 mi NE 10.4 mph - N/A   Overcast
6:00 PM 17.6 °F 6.4 °F 17.6 °F 100% 30.17 in 1.2 mi NE 9.2 mph - N/A   Overcast
6:20 PM 17.6 °F 5.7 °F 17.6 °F 100% 30.18 in 2.5 mi NE 10.4 mph - N/A   Overcast
6:35 PM 18.0 °F 7.7 °F 16.7 °F 95% 30.19 in 0.8 mi NE 8.1 mph - N/A   Overcast
7:15 PM 17.2 °F 4.5 °F 16.0 °F 95% 30.20 in 1.2 mi ENE 11.5 mph - N/A   Overcast
7:35 PM 16.9 °F 4.8 °F 15.6 °F 95% 30.20 in 1.2 mi ENE 10.4 mph - N/A   Overcast
7:55 PM 16.5 °F 3.6 °F 15.1 °F 94% 30.20 in 2.0 mi ENE 11.5 mph - N/A   Overcast
8:15 PM 16.3 °F 4.1 °F 14.9 °F 94% 30.20 in 1.8 mi NE 10.4 mph - N/A   Overcast
8:35 PM 16.0 °F 2.9 °F 14.5 °F 94% 30.21 in 2.0 mi ENE 11.5 mph - N/A   Overcast
9:15 PM 15.8 °F 4.2 °F 14.4 °F 94% 30.22 in 2.5 mi NE 9.2 mph - N/A   Overcast
9:35 PM 15.6 °F 4.0 °F 14.0 °F 93% 30.22 in 3.0 mi NE 9.2 mph - N/A   Overcast
9:55 PM 15.4 °F 3.0 °F 14.0 °F 94% 30.23 in 4.0 mi NE 10.4 mph - N/A   Overcast
10:15 PM 15.1 °F 3.3 °F 13.5 °F 93% 30.23 in 5.0 mi NE 9.2 mph - N/A   Overcast
10:35 PM 14.7 °F 1.4 °F 13.1 °F 93% 30.24 in 5.0 mi NNE 11.5 mph - N/A   Overcast
10:55 PM 14.7 °F 4.8 °F 13.1 °F 93% 30.25 in 5.0 mi NNE 6.9 mph - N/A   Overcast
11:15 PM 14.5 °F 3.6 °F 13.1 °F 94% 30.26 in 5.0 mi NNE 8.1 mph - N/A   Overcast
11:35 PM 14.7 °F 2.1 °F 13.1 °F 93% 30.28 in 3.0 mi NNE 10.4 mph - N/A   Overcast
11:55 PM 14.0 °F 2.0 °F 12.4 °F 93% 30.28 in 4.0 mi NNE 9.2 mph - N/A   Overcast